Stations météo

réclame
Mon MeteoGroup
Uppsala, Suède (2458): Température de l'air & dewpoint: 14.08.2018 19:00:00 - 20.08.2018 19:00:00 (CEST)Uppsala, Suède (2458): Vitesse du vent & gusts: 14.08.2018 19:00:00 - 20.08.2018 19:00:00 (CEST)Uppsala, Suède (2458): Direction du vent: 14.08.2018 19:00:00 - 20.08.2018 19:00:00 (CEST)Uppsala, Suède (2458): reduced air pressure: 14.08.2018 19:00:00 - 20.08.2018 19:00:00 (CEST)Uppsala, Suède (2458): visibility: 14.08.2018 19:00:00 - 20.08.2018 19:00:00 (CEST)Uppsala, Suède (2458): Quantités de précipitations: 14.08.2018 19:00:00 - 20.08.2018 19:00:00 (CEST)
Date & Time tt [°C] td [°C] ff [km/h] ff [knt] fx [km/h] fx [knt] dd ppp [hPa] vv [km] rr [mm]
20.08.2018 19:00:00 - - - - - - - - - -
20.08.2018 18:00:00 - - - - - - - - - -
20.08.2018 17:00:00 - - - - - - - - - -
20.08.2018 16:00:00 16,0 11,0 15 8 - - N - 10 -
20.08.2018 15:00:00 16,3 11,0 16 9 32 18 NNE 1007,1 10 0,0
20.08.2018 14:00:00 17,2 11,5 18 10 32 18 N 1007,6 10 0,0
20.08.2018 13:00:00 17,4 11,7 15 8 25 14 N 1007,3 10 0,0
20.08.2018 12:00:00 17,9 12,4 13 7 22 12 NNE 1007,1 10 0,0
20.08.2018 11:00:00 16,7 13,0 9 5 18 10 N 1007,4 10 0,0
20.08.2018 10:00:00 15,9 13,2 9 5 14 8 NNW 1007,5 10 0,0
20.08.2018 09:00:00 14,9 12,6 8 4 14 8 NNW 1007,5 10 0,0
20.08.2018 08:00:00 13,8 11,1 9 5 14 8 NW 1007,7 10 0,0
20.08.2018 07:00:00 11,9 10,5 2 1 7 4 - 1008,0 10 0,0
20.08.2018 06:00:00 10,9 9,7 4 2 7 4 - 1008,5 10 0,0
20.08.2018 05:00:00 11,2 9,9 0 0 7 4 N 1008,8 10 0,0
20.08.2018 04:00:00 11,3 9,4 5 3 14 8 SW 1009,1 10 0,0
20.08.2018 03:00:00 13,4 10,2 9 5 14 8 SW 1009,4 10 0,0
20.08.2018 02:00:00 13,9 10,5 9 5 18 10 SW 1009,5 10 0,0
20.08.2018 01:00:00 14,0 10,4 9 5 14 8 SSW 1010,0 10 0,0
20.08.2018 00:00:00 13,6 10,2 5 3 14 8 S 1010,1 10 0,0
19.08.2018 23:00:00 14,3 9,7 9 5 14 8 SW 1010,3 10 0,0
19.08.2018 22:00:00 15,2 9,8 9 5 14 8 SW 1010,7 10 0,0
19.08.2018 21:00:00 16,0 10,1 9 5 18 10 SW 1010,9 10 0,0
19.08.2018 20:00:00 17,5 10,4 13 7 25 14 SW 1010,8 10 0,0
19.08.2018 19:00:00 19,0 10,5 16 9 25 14 SW 1011,0 10 0,0
19.08.2018 18:00:00 19,8 9,4 18 10 25 14 WSW 1010,9 10 0,0
19.08.2018 17:00:00 20,8 9,4 16 9 32 18 W 1010,9 10 0,0
19.08.2018 16:00:00 20,7 9,9 18 10 32 18 WSW 1010,9 10 0,0
19.08.2018 15:00:00 20,4 10,2 22 12 32 18 WSW 1010,8 10 0,0
19.08.2018 14:00:00 20,3 10,4 13 7 25 14 W 1010,7 10 0,0
19.08.2018 13:00:00 20,2 10,9 18 10 36 19 WNW 1010,5 10 0,0
19.08.2018 12:00:00 19,2 10,5 18 10 32 18 W 1010,5 10 0,0
19.08.2018 11:00:00 18,1 10,5 18 10 29 16 W 1010,1 10 0,0
19.08.2018 10:00:00 17,5 11,3 24 13 32 18 W 1010,0 10 0,0
19.08.2018 09:00:00 16,7 11,6 21 11 32 18 WSW 1009,8 10 0,0
19.08.2018 08:00:00 15,9 12,3 22 12 36 19 WSW 1009,6 10 0,0
19.08.2018 07:00:00 15,2 12,5 16 9 29 16 WSW 1009,5 10 0,0
19.08.2018 06:00:00 15,0 12,7 21 11 29 16 SW 1009,1 10 0,0
19.08.2018 05:00:00 15,6 13,3 16 9 29 16 WSW 1008,7 10 0,0
19.08.2018 04:00:00 16,3 14,5 16 9 29 16 SW 1008,4 10 0,0
19.08.2018 03:00:00 16,7 14,9 16 9 36 19 SW 1008,2 10 0,0
19.08.2018 02:00:00 17,0 14,3 24 13 40 21 WSW 1008,4 10 0,0
19.08.2018 01:00:00 17,3 14,6 26 14 40 21 SW 1008,5 10 0,0
19.08.2018 00:00:00 17,6 13,9 24 13 50 27 SW 1008,3 10 0,0
18.08.2018 23:00:00 18,2 13,3 28 15 43 23 SW 1008,7 10 0,0
18.08.2018 22:00:00 18,6 12,6 24 13 36 19 SSW 1008,9 10 0,0
18.08.2018 21:00:00 18,4 12,2 24 13 40 21 SSW 1009,2 10 0,1
18.08.2018 20:00:00 19,1 10,9 22 12 40 21 SW 1009,8 10 0,0
18.08.2018 19:00:00 19,3 10,6 18 10 29 16 SSW 1010,1 10 0,0
18.08.2018 18:00:00 19,6 10,3 21 11 29 16 SW 1010,7 10 0,0
18.08.2018 17:00:00 20,1 10,5 16 9 40 21 SW 1011,4 10 0,0
18.08.2018 16:00:00 20,2 10,3 22 12 40 21 SW 1011,8 10 0,0
18.08.2018 15:00:00 20,7 9,9 28 15 43 23 SW 1012,1 10 0,0
18.08.2018 14:00:00 20,4 11,6 18 10 40 21 WSW 1012,8 10 0,0
18.08.2018 13:00:00 19,8 11,0 22 12 36 19 SW 1013,1 10 0,0
18.08.2018 12:00:00 19,1 11,2 21 11 36 19 SW 1013,6 10 0,0
18.08.2018 11:00:00 18,5 11,8 18 10 32 18 SW 1014,1 10 0,0
18.08.2018 10:00:00 17,5 12,4 16 9 25 14 SW 1014,5 10 0,0
18.08.2018 09:00:00 16,3 13,0 13 7 22 12 SW 1014,6 10 0,0
18.08.2018 08:00:00 15,1 13,0 13 7 22 12 SW 1014,8 10 0,0
18.08.2018 07:00:00 13,1 11,8 9 5 14 8 SSW 1014,8 10 0,0
18.08.2018 06:00:00 11,5 10,7 8 4 11 6 SSW 1014,7 10 0,0
18.08.2018 05:00:00 11,7 10,8 8 4 11 6 SSW 1014,6 10 0,0
18.08.2018 04:00:00 12,3 11,0 8 4 14 8 SW 1014,3 10 0,0
18.08.2018 03:00:00 12,8 11,4 9 5 14 8 SW 1014,4 10 0,0
18.08.2018 02:00:00 13,3 11,9 11 6 14 8 SW 1014,2 10 0,0
18.08.2018 01:00:00 13,4 12,0 9 5 14 8 SW 1014,0 10 0,0
18.08.2018 00:00:00 13,7 12,1 9 5 14 8 SW 1013,7 10 0,0
17.08.2018 23:00:00 14,1 12,3 11 6 18 10 SW 1013,5 10 0,0
17.08.2018 22:00:00 15,3 13,1 11 6 18 10 SSW 1013,4 10 0,0
17.08.2018 21:00:00 16,4 14,1 9 5 18 10 SSW 1013,1 10 0,0
17.08.2018 20:00:00 16,9 15,9 11 6 14 8 SSW 1012,6 10 0,0
17.08.2018 19:00:00 16,9 16,6 9 5 72 39 S 1012,2 10 7,0
17.08.2018 18:00:00 18,8 17,3 8 4 22 12 W 1012,3 10 0,0
17.08.2018 17:00:00 18,3 17,0 13 7 22 12 S 1012,5 10 3,0
17.08.2018 16:00:00 18,6 17,1 15 8 58 31 SSW 1012,2 10 6,0
17.08.2018 15:00:00 19,6 19,4 4 2 32 18 SSE 1012,7 10 3,0
17.08.2018 14:00:00 19,5 16,3 21 11 40 21 W 1012,5 10 4,0
17.08.2018 13:00:00 23,3 16,8 15 8 29 16 S 1012,7 10 0,0
17.08.2018 12:00:00 22,6 16,8 18 10 29 16 S 1013,0 10 0,0
17.08.2018 11:00:00 22,0 16,7 18 10 32 18 S 1013,4 10 0,0
17.08.2018 10:00:00 21,3 16,0 21 11 32 18 SSW 1013,5 10 0,0
17.08.2018 09:00:00 20,4 16,2 21 11 32 18 S 1013,4 10 0,0
17.08.2018 08:00:00 19,9 15,7 18 10 32 18 S 1013,3 10 0,0
17.08.2018 07:00:00 19,2 15,5 15 8 25 14 S 1013,1 10 0,0
17.08.2018 06:00:00 19,2 15,3 16 9 25 14 S 1013,1 10 0,0
17.08.2018 05:00:00 19,3 15,6 13 7 22 12 S 1013,1 10 0,0
17.08.2018 04:00:00 19,4 16,2 15 8 22 12 S 1013,1 10 0,0
17.08.2018 03:00:00 19,4 17,0 16 9 25 14 S 1013,0 10 0,0
17.08.2018 02:00:00 19,3 17,3 16 9 25 14 S 1013,2 10 0,0
17.08.2018 01:00:00 19,5 16,9 15 8 25 14 S 1013,3 10 0,0
17.08.2018 00:00:00 19,8 17,0 15 8 22 12 S 1013,4 10 0,0
16.08.2018 23:00:00 19,8 16,6 13 7 22 12 S 1013,4 10 0,0
16.08.2018 22:00:00 20,3 16,3 13 7 25 14 S 1013,4 10 0,0
16.08.2018 21:00:00 20,5 16,1 16 9 25 14 S 1013,5 10 0,0
16.08.2018 20:00:00 21,2 15,9 16 9 32 18 S 1013,4 10 0,0
16.08.2018 19:00:00 22,2 15,8 22 12 36 19 S 1013,3 10 0,0
16.08.2018 18:00:00 23,0 15,6 22 12 36 19 S 1013,6 10 0,0
16.08.2018 17:00:00 23,5 15,0 26 14 40 21 S 1013,7 10 0,0
16.08.2018 16:00:00 23,1 14,4 22 12 36 19 S 1014,0 10 0,0
16.08.2018 15:00:00 23,3 14,6 18 10 32 18 S 1014,3 10 0,0
16.08.2018 14:00:00 22,0 14,4 21 11 29 16 S 1014,6 10 0,0
16.08.2018 13:00:00 21,3 15,2 16 9 29 16 SSW 1014,7 10 0,0
16.08.2018 12:00:00 21,5 15,3 15 8 29 16 S 1014,9 10 0,0
16.08.2018 11:00:00 20,9 15,0 16 9 29 16 SSW 1015,0 10 0,0
16.08.2018 10:00:00 20,0 14,8 21 11 25 14 S 1015,1 10 0,0
16.08.2018 09:00:00 18,0 15,3 9 5 22 12 S 1015,2 10 0,0
16.08.2018 08:00:00 17,0 14,8 13 7 18 10 SSW 1015,2 10 0,0
16.08.2018 07:00:00 15,5 14,4 9 5 14 8 S 1015,1 10 0,0
16.08.2018 06:00:00 14,6 13,8 9 5 11 6 SSW 1015,0 10 0,0
16.08.2018 05:00:00 14,7 14,2 4 2 7 4 S 1014,8 10 0,0
16.08.2018 04:00:00 13,8 13,3 8 4 7 4 SSE 1014,8 10 0,0
16.08.2018 03:00:00 11,6 11,1 5 3 7 4 S 1014,9 10 0,0
16.08.2018 02:00:00 12,3 11,5 4 2 7 4 S 1014,8 10 0,0
16.08.2018 01:00:00 12,6 11,3 5 3 7 4 SSE 1014,9 10 0,0
16.08.2018 00:00:00 13,6 12,2 5 3 7 4 S 1014,6 10 0,0
15.08.2018 23:00:00 14,8 12,7 5 3 7 4 S 1014,3 10 0,0
15.08.2018 22:00:00 16,2 12,9 5 3 11 6 SSW 1014,1 10 0,0
15.08.2018 21:00:00 16,1 13,0 5 3 7 4 S 1013,7 10 0,0
15.08.2018 20:00:00 18,6 12,4 5 3 7 4 SW 1013,4 10 0,0
15.08.2018 19:00:00 20,6 12,6 5 3 7 4 W 1013,1 10 0,0
15.08.2018 18:00:00 20,0 12,2 4 2 11 6 - 1012,8 10 0,0
15.08.2018 17:00:00 19,9 11,9 5 3 11 6 SSW 1012,7 10 0,0
15.08.2018 16:00:00 19,7 12,0 4 2 7 4 - 1012,7 10 0,0
15.08.2018 15:00:00 19,0 12,5 5 3 14 8 E 1012,4 10 0,0
15.08.2018 14:00:00 18,4 12,4 13 7 22 12 NE 1012,1 10 0,0
15.08.2018 13:00:00 20,4 11,6 4 2 14 8 - 1011,5 10 0,0
15.08.2018 12:00:00 18,8 11,6 5 3 14 8 - 1011,3 10 0,0
15.08.2018 11:00:00 18,7 12,0 5 3 14 8 E 1011,1 10 0,0
15.08.2018 10:00:00 18,3 12,5 13 7 18 10 NE 1010,9 10 0,0
15.08.2018 09:00:00 16,7 14,2 8 4 14 8 NE 1010,5 10 0,0
15.08.2018 08:00:00 15,4 13,9 8 4 11 6 NE 1010,0 10 0,0
15.08.2018 07:00:00 13,6 13,0 4 2 7 4 NW 1009,9 10 0,0
15.08.2018 06:00:00 13,0 12,4 2 1 7 4 - 1009,6 10 0,0
15.08.2018 05:00:00 13,3 12,5 5 3 11 6 N 1009,3 10 0,0
15.08.2018 04:00:00 13,5 12,9 8 4 11 6 N 1009,1 10 0,0
15.08.2018 03:00:00 13,2 12,6 8 4 14 8 NNE 1009,0 10 0,0
15.08.2018 02:00:00 13,2 12,3 8 4 14 8 NNE 1009,2 10 0,0
15.08.2018 01:00:00 13,4 12,1 9 5 14 8 N 1009,3 10 0,3
15.08.2018 00:00:00 13,8 12,5 5 3 7 4 N 1009,1 10 0,0
14.08.2018 23:00:00 13,7 12,9 8 4 7 4 NNE 1009,2 10 0,0
14.08.2018 22:00:00 13,8 13,0 5 3 7 4 N 1009,1 10 0,0
14.08.2018 21:00:00 14,1 13,0 5 3 7 4 N 1009,3 10 0,0
14.08.2018 20:00:00 14,3 12,9 4 2 14 8 NNE 1009,2 10 0,0
14.08.2018 19:00:00 14,6 13,0 11 6 14 8 N 1009,2 10 0,2

tt = Température de l'air
td = dewpoint
ff = Vitesse du vent
fx = gusts
dd = Direction du vent
ppp = reduced air pressure
vv = visibility
rr = Quantités de précipitations

stations d'obs. à proximité